(43683) = 1994 WE11 = 2002 JF12

Discovered at Desert Eagle on 2002-05-04 by W. K. Y. Yeung.

Orbit

Orbit type: Main Belt

Note: WebGL enabled browser required.

epoch2024-03-31.0
epoch JD2460400.5
perihelion date2023-01-04.83217
perihelion JD2459949.33217
argument of perihelion (°)64.16469
ascending node (°)285.92837
inclination (°)1.28415
eccentricity0.2402890
perihelion distance (AU)2.1623416
Tisserand w.r.t. Jupiter3.3
ΔV w.r.t. Earth (km/sec)9.3
semimajor axis (AU)2.8462688
mean anomaly (°)92.60365
mean daily motion (°/day)0.20525320
aphelion distance (AU)3.530
period (years)4.8
P-vector [x]0.98487113
P-vector [y]-0.16593168
P-vector [z]-0.04995525
Q-vector [x]0.17194312
Q-vector [y]0.89988867
Q-vector [z]0.40079414
absolute magnitude14.92
phase slope0.15
uncertainty0
referenceMPEC 2024-C163
observations used1275
oppositions21
arc length (days)10644
first opposition used1994
last opposition used2024
residual rms (arc-secs)0.69
perturbers coarse indicatorM-v
perturbers precise indicator003Ek
first observation date used1994-11-27.0
last observation date used2024-01-19.0
computer nameMPCLINUX
JD of orbit computation2456819.459752
perihelion JD uncertainty (days)3.9689E-05
argument of perihelion uncertainty (°)2.0344E-04
ascending node uncertainty (°)2.0331E-04
inclination uncertainty (°)3.1518E-06
eccentricity uncertainty 4.5028E-08
perihelion distance uncertainty (AU)1.2254E-07
Minimum Orbit Intersection Distances (in AU)
for orbit epoch: 2460200.5, reference: E2024-CG3
Mercury1.78651
Venus1.43962
Earth1.15708
Mars0.78096
Jupiter1.89755
Saturn5.82142
Uranus14.9179
Neptune27.0141

Observations

1308 total observations over interval: 1994 11 27.98611 – 2024 01 19.092255
These data are available for download (format description).

Date (UT) J2000 RA J2000 Dec Magn Location Ref
1994 11 27.98611 05 08 46.47 +24 03 46.2   010 – Caussols MPC 24433
1994 11 27.99653 05 08 45.79 +24 03 44.4   010 – Caussols MPC 24433
1994 11 28.00747 05 08 45.21 +24 03 43.3   010 – Caussols MPC 24433
1994 11 28.98819 05 07 46.73 +24 02 12.6 18.8   010 – Caussols MPC 24433
1994 11 28.99861 05 07 46.14 +24 02 11.0   010 – Caussols MPC 24433
1994 11 29.00903 05 07 45.47 +24 02 08.3   010 – Caussols MPC 24433
1998 07 02.37131 20 43 36.04 -17 46 39.0 18.8 R 699 – Lowell Observatory-LONEOS MPS 57615
1998 07 02.38372 20 43 35.60 -17 46 40.4   699 – Lowell Observatory-LONEOS MPS 57615
1998 07 02.39611 20 43 35.29 -17 46 39.7   699 – Lowell Observatory-LONEOS MPS 57615
1998 08 17.16635 20 09 02.04 -19 13 19.2 19.3   704 – Lincoln Laboratory ETS, New Mexico MPS 57615
1998 08 17.18726 20 09 01.07 -19 13 23.8 19.1   704 – Lincoln Laboratory ETS, New Mexico MPS 57615
1998 08 17.20813 20 09 00.13 -19 13 23.6 19.1   704 – Lincoln Laboratory ETS, New Mexico MPS 57615
1998 08 17.22925 20 08 59.13 -19 13 27.8 19.3   704 – Lincoln Laboratory ETS, New Mexico MPS 57615
1999 12 07.39289 06 41 33.99 +23 37 44.4 18.8   704 – Lincoln Laboratory ETS, New Mexico MPS 57615
1999 12 07.40759 06 41 33.19 +23 37 44.3 18.4   704 – Lincoln Laboratory ETS, New Mexico MPS 57615
1999 12 07.42229 06 41 32.51 +23 37 45.3 18.5   704 – Lincoln Laboratory ETS, New Mexico MPS 57615
2000 01 03.23154 06 15 22.06 +23 45 24.0 19.0   704 – Lincoln Laboratory ETS, New Mexico MPS 57615
2000 01 03.26113 06 15 20.40 +23 45 22.1 19.1   704 – Lincoln Laboratory ETS, New Mexico MPS 57615
2000 01 03.29074 06 15 18.67 +23 45 22.4 19.6   704 – Lincoln Laboratory ETS, New Mexico MPS 57615
2001 02 20.407790 10 54 03.219 +05 28 35.52 20.02 V 645 – Apache Point-Sloan Digital Sky Survey MPS 81188
2001 02 20.411262 10 54 03.054 +05 28 36.46 20.88   645 – Apache Point-Sloan Digital Sky Survey MPS 81188
2002 04 14.34387 14 38 57.57 -17 19 25.5 19.3   704 – Lincoln Laboratory ETS, New Mexico MPS 55275
2002 04 14.35792 14 38 56.97 -17 19 23.1 19.6   704 – Lincoln Laboratory ETS, New Mexico MPS 55275
2002 04 14.37209 14 38 56.30 -17 19 19.9 19.4   704 – Lincoln Laboratory ETS, New Mexico MPS 55275
2002 05 01.29347 14 25 06.75 -16 14 17.8 18.9   644 – Palomar Mountain/NEAT MPS 55275
2002 05 01.31604 14 25 05.61 -16 14 12.1 19.6   644 – Palomar Mountain/NEAT MPS 55275
2002 05 01.33718 14 25 04.47 -16 14 06.9 19.5   644 – Palomar Mountain/NEAT MPS 55275
2002 05 04.26213 14 22 34.90 -16 01 30.8 20.0 V 333 – Desert Eagle Observatory MPS 55275
2002 05 04.27269 14 22 34.31 -16 01 27.9 18.6 R 699 – Lowell Observatory-LONEOS MPS 55275
2002 05 04.28587 14 22 33.67 -16 01 25.1 20.0 V 333 – Desert Eagle Observatory MPS 55275
2002 05 04.28785 14 22 33.57 -16 01 23.7   699 – Lowell Observatory-LONEOS MPS 55275
2002 05 04.30300 14 22 32.78 -16 01 19.1   699 – Lowell Observatory-LONEOS MPS 55275
2002 05 04.30983 14 22 32.44 -16 01 17.3 20.2 V 333 – Desert Eagle Observatory MPS 55275
2002 05 04.31818 14 22 31.89 -16 01 15.7   699 – Lowell Observatory-LONEOS MPS 55275
2002 05 07.23340 14 20 04.24 -15 48 33.6 19.4   644 – Palomar Mountain/NEAT MPS 55275
2002 05 07.30931 14 20 00.31 -15 48 13.6 19.4   644 – Palomar Mountain/NEAT MPS 55275
2002 05 07.37245 14 19 57.03 -15 47 56.9 19.6   644 – Palomar Mountain/NEAT MPS 55275
2002 05 09.26944 14 18 22.53 -15 39 38.0 21.3 V 333 – Desert Eagle Observatory MPS 55275
2002 05 09.28775 14 18 21.50 -15 39 33.6 19.3   644 – Palomar Mountain/NEAT MPS 55276
2002 05 09.29720 14 18 20.98 -15 39 32.0 20.5 V 333 – Desert Eagle Observatory MPS 55276
2002 05 09.29733 14 18 20.96 -15 39 29.9 18.7   704 – Lincoln Laboratory ETS, New Mexico MPS 55276
2002 05 09.30949 14 18 20.40 -15 39 28.7 18.9   704 – Lincoln Laboratory ETS, New Mexico MPS 55276
2002 05 09.31215 14 18 20.24 -15 39 27.5 19.1   644 – Palomar Mountain/NEAT MPS 55276
2002 05 09.32159 14 18 19.69 -15 39 26.4 19.0   704 – Lincoln Laboratory ETS, New Mexico MPS 55276
2002 05 09.33427 14 18 19.08 -15 39 22.5 18.6   704 – Lincoln Laboratory ETS, New Mexico MPS 55276
2002 05 09.34362 14 18 18.59 -15 39 20.5 18.8   644 – Palomar Mountain/NEAT MPS 55276
2002 05 11.22427 14 16 46.26 -15 31 07.2 18.9   704 – Lincoln Laboratory ETS, New Mexico MPS 55276
2002 05 11.23888 14 16 45.55 -15 31 02.9 18.9   704 – Lincoln Laboratory ETS, New Mexico MPS 55276
2002 05 11.25360 14 16 44.79 -15 30 59.0 19.0   704 – Lincoln Laboratory ETS, New Mexico MPS 55276
2002 05 11.26822 14 16 44.06 -15 30 56.0 19.2   704 – Lincoln Laboratory ETS, New Mexico MPS 55276
2002 05 11.28286 14 16 43.32 -15 30 51.7 19.2   704 – Lincoln Laboratory ETS, New Mexico MPS 55276
2002 05 13.22051 14 15 10.03 -15 22 27.1 18.9   704 – Lincoln Laboratory ETS, New Mexico MPS 55276
2002 05 13.23523 14 15 09.28 -15 22 23.6 18.9   704 – Lincoln Laboratory ETS, New Mexico MPS 55276
2002 05 13.24995 14 15 08.61 -15 22 19.2 19.0   704 – Lincoln Laboratory ETS, New Mexico MPS 55276
2002 05 13.26478 14 15 07.87 -15 22 15.5 19.2   704 – Lincoln Laboratory ETS, New Mexico MPS 55276
2002 05 16.22157 14 12 49.96 -15 09 37.6 18.8   704 – Lincoln Laboratory ETS, New Mexico MPS 55276
2002 05 16.25185 14 12 48.54 -15 09 28.5 19.1   704 – Lincoln Laboratory ETS, New Mexico MPS 55276
2002 05 16.26692 14 12 47.81 -15 09 25.4 19.2   704 – Lincoln Laboratory ETS, New Mexico MPS 55276
2002 05 18.28726 14 11 17.14 -15 00 58.9 19.5   644 – Palomar Mountain/NEAT MPS 55276
2002 05 18.31089 14 11 16.07 -15 00 53.3 19.1   644 – Palomar Mountain/NEAT MPS 55276
2002 05 18.33760 14 11 14.86 -15 00 46.5 19.1   644 – Palomar Mountain/NEAT MPS 55276
2002 06 09.22493 13 59 15.93 -13 47 25.2 20.9 V 333 – Desert Eagle Observatory MPS 57615
2002 06 09.23109 13 59 15.78 -13 47 24.9 20.3 V 333 – Desert Eagle Observatory MPS 57615
2003 06 25.37482 22 51 28.02 -06 20 42.1 18.6   704 – Lincoln Laboratory ETS, New Mexico MPS 81789
2003 06 25.38474 22 51 28.37 -06 20 38.9 19.1   704 – Lincoln Laboratory ETS, New Mexico MPS 81789
2003 06 25.39457 22 51 28.85 -06 20 36.6 18.7   704 – Lincoln Laboratory ETS, New Mexico MPS 81789
2003 06 25.40437 22 51 29.26 -06 20 32.2 19.1   704 – Lincoln Laboratory ETS, New Mexico MPS 81789
2003 06 25.41420 22 51 29.69 -06 20 29.8 19.1   704 – Lincoln Laboratory ETS, New Mexico MPS 81789
2003 06 27.39152 22 52 53.53 -06 10 05.8 18.3 R 699 – Lowell Observatory-LONEOS MPS 82092
2003 06 27.40413 22 52 54.01 -06 10 01.6   699 – Lowell Observatory-LONEOS MPS 82092
2003 06 27.41675 22 52 54.55 -06 09 58.4   699 – Lowell Observatory-LONEOS MPS 82092
2003 06 27.42932 22 52 55.05 -06 09 54.3   699 – Lowell Observatory-LONEOS MPS 82092
2003 07 02.37141 22 56 01.71 -05 46 04.2 19.2   704 – Lincoln Laboratory ETS, New Mexico MPS 82092
2003 07 02.38135 22 56 02.02 -05 45 58.8 19.5   704 – Lincoln Laboratory ETS, New Mexico MPS 82092
2003 07 02.39145 22 56 02.30 -05 45 53.9 19.5   704 – Lincoln Laboratory ETS, New Mexico MPS 82092
2003 07 02.41135 22 56 03.07 -05 45 49.5 19.8   704 – Lincoln Laboratory ETS, New Mexico MPS 82092
2003 08 04.33542 23 00 54.17 -04 40 09.7 18.4   704 – Lincoln Laboratory ETS, New Mexico MPS 82861
2003 08 04.34581 23 00 53.90 -04 40 11.6 19.2   704 – Lincoln Laboratory ETS, New Mexico MPS 82861
2003 08 04.35631 23 00 53.65 -04 40 12.4 19.9   704 – Lincoln Laboratory ETS, New Mexico MPS 82861
2003 08 04.36692 23 00 53.45 -04 40 12.5 19.6   704 – Lincoln Laboratory ETS, New Mexico MPS 82861
2003 08 04.37727 23 00 53.14 -04 40 11.1 19.4   704 – Lincoln Laboratory ETS, New Mexico MPS 82861
2003 08 22.26771 22 51 48.89 -05 18 20.7 17.6   704 – Lincoln Laboratory ETS, New Mexico MPS 83847
2003 08 22.28027 22 51 48.36 -05 18 23.3 17.4   704 – Lincoln Laboratory ETS, New Mexico MPS 83847
2003 08 22.29290 22 51 47.80 -05 18 26.0 17.9   704 – Lincoln Laboratory ETS, New Mexico MPS 83847
2003 08 22.30549 22 51 47.25 -05 18 27.8 18.5   704 – Lincoln Laboratory ETS, New Mexico MPS 83847
2003 08 23.27703 22 51 07.35 -05 21 44.0 17.1   644 – Palomar Mountain/NEAT MPS 83847
2003 08 23.33992 22 51 04.58 -05 21 57.1 17.1   644 – Palomar Mountain/NEAT MPS 83847
2003 08 23.41471 22 51 01.28 -05 22 12.4 17.2   644 – Palomar Mountain/NEAT MPS 83847
